Clarksville, TN

4:02 PM CDT on March 23, 2017 (GMT -0500)
Outlaw

Weather History for KCKV - December, 2011

Change the Weather History Date:

Wednesday, December 28, 2011

  Actual Average Record
Temperature  
Mean Temperature 37 °F 37 °F  
Max Temperature 46 °F 46 °F 72 °F (2015)
Min Temperature 28 °F 27 °F 6 °F (1983)
Degree Days  
Heating Degree Days 28    
Month to date heating degree days 649  
Since 1 July heating degree days 1332  
Cooling Degree Days 0    
Month to date cooling degree days 0  
Year to date cooling degree days  
Moisture  
Dew Point 30 °F    
Average Humidity 77    
Maximum Humidity 100    
Minimum Humidity 53    
Precipitation  
Precipitation 0.00 in 0.13 in 3.27 in (1954)
Month to date precipitation 5.96 4.65  
Year to date precipitation 49.80  
Sea Level Pressure  
Sea Level Pressure 30.11 in    
Wind  
Wind Speed 4 mph (WSW)    
Max Wind Speed 12 mph    
Max Gust Speed 14 mph    
Visibility 10 miles    
Events      
T = Trace of Precipitation, MM = Missing Value Source: NWS Daily Summary

Daily Weather History Graph

Daily Weather History Graph

Search for Another Location

Airport or City:

Trip Planner

Search our weather history database for the weather conditions in past years. The results will help you decide how hot, cold, wet, or windy it might be!

Date:

Astronomy

Dec. 28, 2011 Rise Set
Actual Time 7:00 AM CST 4:41 PM CST
Civil Twilight 6:32 AM CST 5:10 PM CST
Nautical Twilight 5:59 AM CST 5:42 PM CST
Astronomical Twilight 5:28 AM CST 6:14 PM CST
Moon 9:33 AM CST (12/28) 9:10 PM CST (12/28)
Length of Visible Light 10h 38m
Length of Day
9h 40m
Waxing Crescent, 18% of the Moon is Illuminated
Dec 28
Waxing Crescent
Jan 1
First Quarter
Jan 9
Full
Jan 16
Last Quarter
Jan 23
New

Hourly Weather History & Observations

Time (CST) Temp. Windchill Dew Point Humidity Pressure Visibility Wind Dir Wind Speed Gust Speed Precip Events Conditions
12:52 AM 36.0 °F 33.3 °F 30.0 °F 79% 30.08 in 10.0 mi West 3.5 mph - N/A   Clear
1:52 AM 34.0 °F 29.8 °F 28.0 °F 79% 30.09 in 10.0 mi NW 4.6 mph - N/A   Clear
2:52 AM 35.1 °F 30.1 °F 30.0 °F 82% 30.11 in 10.0 mi WNW 5.8 mph - N/A   Overcast
3:52 AM 34.0 °F 29.8 °F 28.9 °F 82% 30.12 in 10.0 mi West 4.6 mph - N/A   Partly Cloudy
4:52 AM 33.1 °F 28.7 °F 28.9 °F 85% 30.12 in 10.0 mi West 4.6 mph - N/A   Clear
5:52 AM 30.0 °F - 28.0 °F 92% 30.12 in 10.0 mi Calm Calm - N/A   Clear
6:52 AM 28.9 °F 25.2 °F 27.0 °F 92% 30.12 in 10.0 mi SW 3.5 mph - N/A   Clear
7:52 AM 30.0 °F - 28.0 °F 92% 30.14 in 10.0 mi Calm Calm - N/A   Clear
8:52 AM 34.0 °F - 32.0 °F 92% 30.16 in 10.0 mi Calm Calm - N/A   Clear
9:52 AM 37.0 °F - 30.0 °F 76% 30.17 in 10.0 mi Calm Calm - N/A   Clear
10:52 AM 41.0 °F 37.1 °F 32.0 °F 70% 30.14 in 10.0 mi SW 5.8 mph - N/A   Clear
11:52 AM 42.1 °F 37.1 °F 33.1 °F 70% 30.12 in 10.0 mi SW 8.1 mph - N/A   Clear
12:52 PM 44.1 °F 40.8 °F 32.0 °F 63% 30.09 in 10.0 mi West 5.8 mph - N/A   Clear
1:52 PM 45.0 °F 39.7 °F 30.9 °F 58% 30.09 in 10.0 mi SW 10.4 mph - N/A   Clear
2:52 PM 44.1 °F 40.1 °F 28.9 °F 55% 30.09 in 10.0 mi West 6.9 mph - N/A   Clear
4:52 PM 43.0 °F - 28.9 °F 58% 30.09 in 10.0 mi Calm Calm - N/A   Clear
5:52 PM 39.9 °F - 28.9 °F 65% 30.10 in 10.0 mi Calm Calm - N/A   Clear
6:52 PM 35.1 °F 32.2 °F 28.9 °F 78% 30.10 in 10.0 mi South 3.5 mph - N/A   Clear
7:52 PM 34.0 °F 31.0 °F 30.0 °F 85% 30.10 in 10.0 mi South 3.5 mph - N/A   Clear
8:52 PM 32.0 °F - 28.9 °F 88% 30.09 in 10.0 mi Calm Calm - N/A   Clear
10:52 PM 28.9 °F 25.2 °F 28.0 °F 96% 30.05 in 10.0 mi SSE 3.5 mph - N/A   Clear
11:52 PM 28.9 °F 25.2 °F 28.0 °F 96% 30.03 in 10.0 mi South 3.5 mph - N/A   Clear